Year,Month,Day,Hour,Minute,Value (Times are PST for temperature in C)
2010,11,15,12,29,11.60
2010,11,15,12,30,11.70
2010,11,15,12,31,11.70
2010,11,15,12,32,11.80
2010,11,15,12,33,11.80
2010,11,15,12,34,11.90
2010,11,15,12,35,11.90
2010,11,15,12,36,11.90
2010,11,15,12,37,12.00
2010,11,15,12,38,12.10
2010,11,15,12,39,12.10
2010,11,15,12,40,12.20
2010,11,15,12,41,12.20
2010,11,15,12,42,12.20
2010,11,15,12,43,12.30
2010,11,15,12,44,12.30
2010,11,15,12,45,12.40
2010,11,15,12,46,12.40
2010,11,15,12,47,12.40
2010,11,15,12,48,12.40
2010,11,15,12,49,12.50
2010,11,15,12,50,12.50
2010,11,15,12,51,12.50
2010,11,15,12,52,12.50
2010,11,15,12,53,12.60
2010,11,15,12,54,12.60
2010,11,15,12,55,12.60
2010,11,15,12,56,12.60
2010,11,15,12,57,12.60
2010,11,15,12,58,12.60
2010,11,15,12,59,12.60
2010,11,15,13,00,12.70
2010,11,15,13,01,12.70
2010,11,15,13,02,12.70
2010,11,15,13,03,12.70
2010,11,15,13,04,12.70
2010,11,15,13,05,12.70
2010,11,15,13,06,12.60
2010,11,15,13,07,12.60
2010,11,15,13,08,12.60
2010,11,15,13,09,12.60
2010,11,15,13,10,12.60
2010,11,15,13,11,12.60
2010,11,15,13,12,12.60
2010,11,15,13,13,12.60
2010,11,15,13,14,12.60
2010,11,15,13,15,12.60
2010,11,15,13,16,12.60
2010,11,15,13,17,12.60
2010,11,15,13,18,12.60
2010,11,15,13,19,12.60
2010,11,15,13,20,12.50
2010,11,15,13,21,12.50
2010,11,15,13,22,12.50
2010,11,15,13,23,12.50
2010,11,15,13,24,12.50
2010,11,15,13,25,12.50
2010,11,15,13,26,12.50
2010,11,15,13,27,12.40
2010,11,15,13,28,12.40
2010,11,15,13,29,12.40
2010,11,15,13,30,12.40
2010,11,15,13,31,12.40
2010,11,15,13,32,12.40
2010,11,15,13,33,12.40
2010,11,15,13,34,12.40
2010,11,15,13,35,12.40
2010,11,15,13,36,12.40
2010,11,15,13,37,12.40
2010,11,15,13,38,12.40
2010,11,15,13,39,12.40
2010,11,15,13,40,12.40
2010,11,15,13,41,12.40
2010,11,15,13,42,12.50
2010,11,15,13,43,12.50
2010,11,15,13,44,12.50
2010,11,15,13,45,12.60
2010,11,15,13,46,12.60
2010,11,15,13,47,12.60
2010,11,15,13,48,12.60
2010,11,15,13,49,12.60
2010,11,15,13,50,12.60
2010,11,15,13,51,12.60
2010,11,15,13,52,12.60
2010,11,15,13,53,12.60
2010,11,15,13,54,12.60
2010,11,15,13,55,12.60
2010,11,15,13,56,12.60
2010,11,15,13,57,12.60
2010,11,15,13,58,12.60
2010,11,15,13,59,12.60
2010,11,15,14,00,12.60
2010,11,15,14,01,12.60
2010,11,15,14,02,12.60
2010,11,15,14,03,12.50
2010,11,15,14,04,12.50
2010,11,15,14,05,12.50
2010,11,15,14,06,12.40
2010,11,15,14,07,12.40
2010,11,15,14,08,12.40
2010,11,15,14,09,12.40
2010,11,15,14,10,12.40
2010,11,15,14,11,12.40
2010,11,15,14,12,12.40
2010,11,15,14,13,12.30
2010,11,15,14,14,12.30
2010,11,15,14,15,12.30
2010,11,15,14,16,12.40
2010,11,15,14,17,12.40
2010,11,15,14,18,12.40
2010,11,15,14,19,12.40
2010,11,15,14,20,12.40
2010,11,15,14,21,12.40
2010,11,15,14,22,12.40
2010,11,15,14,23,12.40
2010,11,15,14,24,12.40
2010,11,15,14,25,12.50
2010,11,15,14,26,12.50
2010,11,15,14,27,12.50
2010,11,15,14,28,12.50
2010,11,15,14,29,12.50
2010,11,15,14,30,12.60
2010,11,15,14,31,12.60
2010,11,15,14,32,12.60
2010,11,15,14,33,12.60
2010,11,15,14,34,12.60
2010,11,15,14,35,12.60
2010,11,15,14,36,12.60
2010,11,15,14,37,12.60
2010,11,15,14,38,12.60
2010,11,15,14,39,12.60
2010,11,15,14,40,12.60
2010,11,15,14,41,12.60
2010,11,15,14,42,12.60
2010,11,15,14,43,12.60
2010,11,15,14,44,12.60
2010,11,15,14,45,12.60
2010,11,15,14,46,12.60
2010,11,15,14,47,12.60
2010,11,15,14,48,12.60
2010,11,15,14,49,12.60
2010,11,15,14,50,12.60
2010,11,15,14,51,12.50
2010,11,15,14,52,12.50
2010,11,15,14,53,12.50
2010,11,15,14,54,12.40
2010,11,15,14,55,12.40
2010,11,15,14,56,12.30
2010,11,15,14,57,12.30
2010,11,15,14,58,12.30
2010,11,15,14,59,12.30
2010,11,15,15,00,12.20
2010,11,15,15,01,12.20
2010,11,15,15,02,12.20
2010,11,15,15,03,12.20
2010,11,15,15,04,12.10
2010,11,15,15,05,12.10
2010,11,15,15,06,12.10
2010,11,15,15,07,12.10
2010,11,15,15,08,12.00
2010,11,15,15,09,12.00
2010,11,15,15,10,12.00
2010,11,15,15,11,12.00
2010,11,15,15,12,11.90
2010,11,15,15,13,11.90
2010,11,15,15,14,11.90
2010,11,15,15,15,12.00
2010,11,15,15,16,12.00
2010,11,15,15,17,12.00
2010,11,15,15,18,12.10
2010,11,15,15,19,12.10
2010,11,15,15,20,12.10
2010,11,15,15,21,12.20
2010,11,15,15,22,12.20
2010,11,15,15,23,12.20
2010,11,15,15,24,12.20
2010,11,15,15,25,12.20
2010,11,15,15,26,12.20
2010,11,15,15,27,12.20
2010,11,15,15,28,12.20
2010,11,15,15,29,12.20
2010,11,15,15,30,12.20
2010,11,15,15,31,12.20
2010,11,15,15,32,12.20
2010,11,15,15,33,12.20
2010,11,15,15,34,12.20
2010,11,15,15,35,12.20
2010,11,15,15,36,12.20
2010,11,15,15,37,12.20
2010,11,15,15,38,12.20
2010,11,15,15,39,12.20
2010,11,15,15,40,12.20
2010,11,15,15,41,12.20
2010,11,15,15,42,12.20
2010,11,15,15,43,12.20
2010,11,15,15,44,12.20
2010,11,15,15,45,12.20
2010,11,15,15,46,12.20
2010,11,15,15,47,12.20
2010,11,15,15,48,12.20
2010,11,15,15,49,12.20
2010,11,15,15,50,12.20
2010,11,15,15,51,12.20
2010,11,15,15,52,12.20
2010,11,15,15,53,12.20
2010,11,15,15,54,12.20
2010,11,15,15,55,12.20
2010,11,15,15,56,12.30
2010,11,15,15,57,12.30
2010,11,15,15,58,12.30
2010,11,15,15,59,12.30
2010,11,15,16,00,12.30
2010,11,15,16,01,12.30
2010,11,15,16,02,12.40
2010,11,15,16,03,12.40
2010,11,15,16,04,12.40
2010,11,15,16,05,12.40
2010,11,15,16,06,12.40
2010,11,15,16,07,12.40
2010,11,15,16,08,12.40
2010,11,15,16,09,12.40
2010,11,15,16,10,12.40
2010,11,15,16,11,12.40
2010,11,15,16,12,12.50
2010,11,15,16,13,12.50
2010,11,15,16,14,12.40
2010,11,15,16,15,12.40
2010,11,15,16,16,12.40
2010,11,15,16,17,12.40
2010,11,15,16,18,12.40
2010,11,15,16,19,12.40
2010,11,15,16,20,12.30
2010,11,15,16,21,12.30
2010,11,15,16,22,12.30
2010,11,15,16,23,12.30
2010,11,15,16,24,12.30
2010,11,15,16,25,12.30
2010,11,15,16,26,12.30
2010,11,15,16,27,12.30
2010,11,15,16,28,12.30
2010,11,15,16,29,12.30
2010,11,15,16,30,12.30
2010,11,15,16,31,12.30
2010,11,15,16,32,12.30
